[[{"header":{"parameterUnit":"m.s-1","parameterCategory":1,"la1":30.2991,"la2":30.254,"lo1":-89.0895,"lo2":-89.0444,"dy":0.0017,"dx":0.0017,"nx":28,"ny":28,"refTime":"2025-04-04T09:00:00:Z","depth":0,"parameterNumber":2,"parameterNumberName":"U-component_of_WINDS"},"data":[0,0,0,0,0,0,0,0,0,0,0,0,0,0,0,0,0,0,0,0,0,0,0,0,0,0,0,0,0,0,0,0,0,0,0,0,0,0,0,0,0,0,0,0,0,0,0,0,0,0,0,0,0,0,0,0,0,0,-4.3831,-4.3833,0,-4.3939,-4.394,-4.3941,-4.3947,-4.3946,-4.3945,-4.3944,-4.4053,-4.4057,-4.4061,0,0,0,0,0,0,0,0,0,0,0,0,0,-4.3633,-4.3636,-4.3831,-4.3833,-4.3834,-4.3938,-4.394,-4.3941,-4.3947,-4.3946,-4.3944,-4.3943,-4.4052,-4.4057,-4.4061,0,0,0,0,0,0,0,0,0,0,0,0,0,-4.3727,-4.3637,-4.3831,-4.385,-4.3852,-4.3938,-4.394,-4.3942,-4.3948,-4.3946,-4.3944,-4.3942,-4.405,-4.4056,-4.4062,-4.4136,0,0,-4.4081,-4.4083,0,0,0,0,0,0,0,0,-4.3722,-4.3734,-4.3846,-4.3849,-4.3852,-4.3928,-4.391,-4.4007,-4.3948,-4.3912,-4.3944,-4.3941,-4.4013,-4.4022,-4.4046,-4.4141,-4.4146,-4.4081,-4.4085,-4.4087,-4.4089,0,0,0,0,0,0,0,-4.3715,-4.373,-4.3874,-4.3847,-4.3851,-4.3853,-4.3864,-4.3928,-4.3971,-4.3915,-4.3915,-4.3928,-4.4014,-4.404,-4.4049,-4.4148,-4.4081,-4.4086,-4.409,-4.4093,-4.431,-4.4312,0,0,0,0,0,0,-4.3705,-4.3724,-4.387,-4.3877,-4.3781,-4.3858,-4.3871,-4.3905,-4.397,-4.3979,-4.3929,-4.3928,-4.4031,-4.4041,-4.4052,-4.4143,-4.4087,-4.4093,-4.4097,-4.4308,-4.431,-4.4313,0,0,0,0,0,0,-4.3701,-4.3718,-4.3866,-4.3801,-4.382,-4.3863,-4.3902,-4.3908,-4.3934,-4.3982,-4.3989,-4.3948,-4.403,-4.4044,-4.4115,-4.4147,-4.4096,-4.4101,-4.4305,-4.4308,-4.4311,-4.4325,0,0,0,0,0,0,-4.3695,-4.3716,-4.3745,-4.3802,-4.3823,-4.3927,-4.3904,-4.3912,-4.3945,-4.3944,-4.4001,-4.4009,-4.4029,-4.4106,-4.4122,-4.4154,-4.4106,-4.4302,-4.4307,-4.431,-4.4322,-4.4329,-4.4334,0,0,0,0,0,-4.3688,-4.3745,-4.3746,-4.3764,-4.386,-4.3929,-4.3941,-4.3964,-4.3947,-4.3976,-4.4007,-4.4007,-4.4142,-4.4114,-4.4131,-4.4166,-4.4301,-4.4305,-4.431,-4.4319,-4.4327,-4.4334,0,0,0,0,0,0,-4.369,-4.3752,-4.3755,-4.3831,-4.3875,-4.393,-4.3967,-4.3971,-4.402,-4.4017,-4.4043,-4.4056,-4.4126,-4.4154,-4.4122,-4.4241,-4.4219,-4.4228,-4.4221,-4.4228,-4.4234,-4.4225,-4.4111,0,0,0,0,0,-4.37,-4.375,-4.3802,-4.3865,-4.3886,-4.3923,-4.3954,-4.3968,-4.4013,-4.4032,-4.4068,-4.4112,-4.4165,-4.4198,-4.4249,-4.4327,-4.4339,-4.436,-4.4366,-4.437,-4.4377,-4.442,-4.4429,-4.4328,-4.4328,-4.4328,0,0,-4.3719,-4.376,-4.379,-4.3866,-4.3901,-4.3953,-4.3938,-4.3994,-4.4033,-4.404,-4.4109,-4.4138,-4.4189,-4.4264,-4.4299,-4.4289,-4.4408,-4.4376,-4.438,-4.4384,-4.4425,-4.4435,-4.4443,-4.4331,-4.4331,-4.433,0,0,-4.3782,-4.3818,-4.3873,-4.3909,-4.3963,-4.3987,-4.4001,-4.4055,-4.4074,-4.4145,-4.4151,-4.4198,-4.4288,-4.4324,-4.4354,-4.4432,-4.4434,-4.4448,-4.4478,-4.452,-4.4528,-4.4535,-4.4561,-4.4571,-4.4455,-4.4455,-4.4455,0,-4.3799,-4.3878,-4.3902,-4.3957,-4.399,-4.4,-4.4057,-4.4091,-4.4158,-4.4181,-4.4169,-4.4282,-4.4318,-4.4401,-4.442,-4.4445,-4.446,-4.4441,-4.4525,-4.4532,-4.4539,-4.4565,-4.4575,-4.4456,-4.4456,-4.4456,-4.4456,0,-4.3896,-4.3951,-4.3989,-4.4054,-4.4092,-4.4148,-4.418,-4.4216,-4.4227,-4.4252,-4.4324,-4.4367,-4.4427,-4.4448,-4.446,-4.4534,-4.4526,-4.4519,-4.4497,-4.4549,-4.4574,-4.4584,-4.4458,-4.4458,-4.4457,-4.4457,0,0,-4.3961,-4.4039,-4.4053,-4.4082,-4.4143,-4.4185,-4.4242,-4.4301,-4.433,-4.4377,-4.4425,-4.4501,-4.4496,-4.453,-4.4546,-4.4583,-4.464,-4.4572,-4.4573,-4.4582,-4.4723,-4.4726,-4.4737,-4.4643,-4.4645,-4.4646,-4.4719,0,-4.4029,-4.4129,-4.4153,-4.4239,-4.4289,-4.43,-4.435,-4.4392,-4.4418,-4.4465,-4.4494,-4.4547,-4.4536,-4.4557,-4.4594,-4.4625,-4.4669,-4.4621,-4.4687,-4.4689,-4.4671,-4.475,-4.4754,-4.482,-4.4729,-4.473,-4.4731,0,-4.4121,-4.4169,-4.426,-4.4314,-4.4336,-4.438,-4.4436,-4.4481,-4.4529,-4.4546,-4.4585,-4.4597,-4.4657,-4.4633,-4.4715,-4.4682,-4.4711,-4.4731,-4.4734,-4.4739,-4.4712,-4.4756,-4.4842,-4.4851,-4.4747,-4.4746,-4.4745,0,-4.4157,-4.4246,-4.4311,-4.4337,-4.4402,-4.4432,-4.4461,-4.4508,-4.4542,-4.4591,-4.4613,-4.4668,-4.4698,-4.4741,-4.4768,-4.4749,-4.4848,-4.4827,-4.4863,-4.4862,-4.4881,-4.4879,-4.497,-4.4903,-4.4903,-4.4902,-4.4902,0,-4.4229,-4.4284,-4.4328,-4.4369,-4.4431,-4.4458,-4.4519,-4.4548,-4.459,-4.4636,-4.465,-4.4693,-4.4727,-4.4775,-4.4797,-4.4861,-4.4875,-4.4889,-4.4894,-4.4887,-4.4885,-4.4905,-4.49,-4.4905,-4.4905,-4.4904,-4.4904,0,-4.4279,-4.4311,-4.4383,-4.444,-4.4455,-4.4498,-4.4546,-4.4586,-4.4613,-4.4671,-4.4686,-4.4728,-4.4785,-4.4817,-4.4889,-4.4904,-4.4975,-4.4979,-4.4958,-4.496,-4.4993,-4.4989,-4.5099,-4.5114,-4.5038,-4.5039,-4.5039,0,-4.4322,-4.4365,-4.4425,-4.4457,-4.4486,-4.4537,-4.4572,-4.4601,-4.4637,-4.4696,-4.4728,-4.4786,-4.4834,-4.4925,-4.4962,-4.5017,-4.5021,-4.5056,-4.5029,-4.5021,-4.502,-4.5016,-4.502,-4.5059,-4.506,-4.5061,-4.5061,0,-4.4395,-4.4409,-4.4458,-4.4513,-4.4553,-4.4598,-4.4643,-4.4668,-4.4705,-4.4744,-4.4802,-4.484,-4.4913,-4.497,-4.5029,-4.5059,-4.5066,-4.507,-4.5081,-4.5073,-4.5059,-4.5065,-4.4969,-4.5066,-4.5066,-4.5066,-4.5065,-4.5065,-4.4442,-4.448,-4.4528,-4.4583,-4.4619,-4.466,-4.47,-4.4732,-4.4781,-4.4843,-4.4858,-4.4919,-4.4968,-4.5047,-4.5079,-4.5127,-4.5121,-4.5137,-4.5141,-4.5144,-4.5144,-4.5053,-4.5138,-4.5138,-4.5138,-4.5138,-4.5138,0,-4.4514,-4.4546,-4.4595,-4.4657,-4.47,-4.4704,-4.4753,-4.4789,-4.4843,-4.4887,-4.4934,-4.5001,-4.5057,-4.5099,-4.5156,-4.5187,-4.5192,-4.5201,-4.5198,-4.5205,-4.5147,-4.5131,-4.5196,-4.5196,-4.5196,-4.5196,-4.5196,-4.5196,-4.4556,-4.462,-4.464,-4.4723,-4.4755,-4.4815,-4.4843,-4.4881,-4.4916,-4.4991,-4.5037,-4.5064,-4.5108,-4.5169,-4.522,-4.5231,-4.5251,-4.5259,-4.527,-4.5215,-4.5209,-4.5203,-4.5188,-4.5264,-4.5264,-4.5324,-4.5324,-4.5325]},{"header":{"parameterUnit":"m.s-1","parameterCategory":1,"la1":30.2991,"la2":30.254,"lo1":-89.0895,"lo2":-89.0444,"dy":0.0017,"dx":0.0017,"nx":28,"ny":28,"refTime":"2025-04-04T09:00:00:Z","depth":0,"parameterNumber":3,"parameterNumberName":"V-component_of_WINDS"},"data":[0,0,0,0,0,0,0,0,0,0,0,0,0,0,0,0,0,0,0,0,0,0,0,0,0,0,0,0,0,0,0,0,0,0,0,0,0,0,0,0,0,0,0,0,0,0,0,0,0,0,0,0,0,0,0,0,0,0,4.6983,4.6984,0,4.711,4.7111,4.7113,4.7111,4.711,4.7108,4.7106,4.7238,4.7243,4.7248,0,0,0,0,0,0,0,0,0,0,0,0,0,4.6741,4.6746,4.6983,4.6984,4.6986,4.711,4.7111,4.7113,4.7112,4.711,4.7108,4.7106,4.7236,4.7242,4.7248,0,0,0,0,0,0,0,0,0,0,0,0,0,4.6855,4.6747,4.6982,4.7,4.7003,4.7109,4.7111,4.7114,4.7112,4.711,4.7107,4.7105,4.7234,4.7241,4.7249,4.7347,0,0,4.7272,4.7275,0,0,0,0,0,0,0,0,4.6849,4.6864,4.6996,4.6999,4.7002,4.7092,4.7075,4.7192,4.7113,4.7071,4.7106,4.7103,4.7191,4.7202,4.7232,4.7353,4.7358,4.7273,4.7277,4.7281,4.7283,0,0,0,0,0,0,0,4.6841,4.6859,4.7033,4.6998,4.7002,4.7003,4.7016,4.7097,4.7144,4.7074,4.7074,4.7089,4.7193,4.7224,4.7235,4.736,4.7273,4.7279,4.7284,4.7287,4.7572,4.7575,0,0,0,0,0,0,4.6829,4.6852,4.7029,4.7037,4.6918,4.7009,4.7024,4.7066,4.7143,4.7152,4.7091,4.7089,4.7213,4.7226,4.7239,4.7362,4.7281,4.7288,4.7292,4.7569,4.7573,4.7576,0,0,0,0,0,0,4.6824,4.6845,4.7024,4.6945,4.6967,4.7016,4.7063,4.707,4.7101,4.7156,4.7164,4.7115,4.7211,4.7229,4.7321,4.7366,4.7291,4.7298,4.7565,4.757,4.7574,4.7605,0,0,0,0,0,0,4.6817,4.6843,4.688,4.6945,4.6972,4.7102,4.7066,4.7074,4.7115,4.7112,4.718,4.7189,4.7211,4.731,4.7328,4.7375,4.7304,4.7562,4.7567,4.7573,4.76,4.761,4.7618,0,0,0,0,0,4.6808,4.6883,4.6881,4.6903,4.7018,4.7105,4.712,4.7143,4.7118,4.7156,4.7192,4.7187,4.7358,4.7319,4.734,4.739,4.7559,4.7566,4.7572,4.7596,4.7608,4.7618,0,0,0,0,0,0,4.682,4.6891,4.6891,4.6988,4.7041,4.7104,4.7153,4.7154,4.7214,4.721,4.7236,4.7251,4.7344,4.7376,4.7331,4.749,4.7455,4.7467,4.7466,4.7478,4.7487,4.7478,4.731,0,0,0,0,0,4.6835,4.6898,4.6957,4.7037,4.7063,4.7104,4.7142,4.7155,4.7211,4.7233,4.7275,4.7329,4.7395,4.7438,4.7502,4.7604,4.7621,4.7649,4.7658,4.7666,4.7676,4.7736,4.775,4.7598,4.7598,4.7598,0,0,4.6864,4.6911,4.6949,4.7041,4.7083,4.715,4.7122,4.7193,4.7243,4.7243,4.7334,4.7367,4.7429,4.7528,4.7573,4.7557,4.7721,4.7674,4.768,4.7686,4.7744,4.7758,4.7771,4.7603,4.7602,4.7601,0,0,4.6953,4.6993,4.7066,4.7109,4.7174,4.72,4.7218,4.7282,4.7304,4.7395,4.7398,4.7458,4.7571,4.7616,4.7654,4.7763,4.7762,4.7783,4.7831,4.7889,4.7901,4.7912,4.7953,4.7967,4.7792,4.7793,4.7793,0,4.6982,4.7081,4.7104,4.7176,4.7217,4.7221,4.7297,4.7337,4.7419,4.7448,4.7429,4.7573,4.7615,4.7726,4.7753,4.7782,4.7805,4.7776,4.7897,4.7908,4.7919,4.7959,4.7974,4.7795,4.7795,4.7794,4.7794,0,4.7115,4.7184,4.7235,4.7315,4.7362,4.7435,4.7471,4.7516,4.7526,4.7555,4.765,4.7701,4.7776,4.7803,4.7813,4.7917,4.7905,4.7891,4.7857,4.7935,4.7973,4.7988,4.7798,4.7797,4.7797,4.7796,0,0,4.7214,4.7307,4.7325,4.7363,4.7435,4.749,4.7564,4.7638,4.7678,4.7735,4.78,4.7896,4.7885,4.7928,4.7943,4.7994,4.8081,4.7975,4.7976,4.7994,4.8201,4.8213,4.823,4.808,4.8083,4.8085,4.8197,0,4.7311,4.7443,4.7467,4.7583,4.7649,4.7655,4.772,4.7773,4.7803,4.7864,4.7897,4.7966,4.7945,4.7971,4.8022,4.8059,4.8123,4.8051,4.8143,4.8145,4.8128,4.8249,4.8261,4.8363,4.8212,4.8214,4.8216,0,4.7443,4.7504,4.7626,4.7693,4.7721,4.7779,4.7851,4.7909,4.7969,4.7988,4.8037,4.8048,4.8127,4.8089,4.8201,4.8152,4.8191,4.8215,4.822,4.823,4.8186,4.8265,4.8396,4.8412,4.8239,4.8237,4.8235,0,4.7506,4.7618,4.7707,4.7739,4.7818,4.7859,4.7894,4.7952,4.7996,4.8059,4.8088,4.8159,4.8199,4.8254,4.8284,4.8253,4.8395,4.8358,4.8414,4.8414,4.8445,4.8443,4.8586,4.8467,4.8466,4.8466,4.8466,0,4.7613,4.7689,4.7737,4.7792,4.7877,4.7905,4.7989,4.8023,4.8075,4.8138,4.8147,4.8206,4.8242,4.8307,4.8331,4.8421,4.8438,4.8457,4.8463,4.8457,4.8455,4.8484,4.8478,4.847,4.8469,4.8469,4.8468,0,4.7698,4.7733,4.7831,4.7898,4.7917,4.7977,4.8035,4.809,4.812,4.82,4.822,4.8269,4.8346,4.8381,4.8476,4.8492,4.8596,4.8596,4.8576,4.8578,4.8633,4.8629,4.8802,4.8827,4.8689,4.869,4.8691,0,4.7765,4.7824,4.7898,4.794,4.7977,4.8045,4.8091,4.8121,4.8168,4.8243,4.8289,4.8366,4.843,4.8553,4.8597,4.8671,4.8674,4.873,4.8685,4.8679,4.8678,4.8675,4.8682,4.8738,4.8739,4.8741,4.8741,0,4.7882,4.7897,4.7962,4.8034,4.8088,4.8146,4.8203,4.8238,4.8277,4.833,4.8409,4.8459,4.8557,4.8635,4.8711,4.8749,4.8753,4.8755,4.8773,4.8768,4.8755,4.8766,4.86,4.8751,4.875,4.875,4.8749,4.8749,4.7962,4.8015,4.8076,4.8149,4.8195,4.8249,4.8305,4.8343,4.8409,4.8491,4.8505,4.859,4.8652,4.8756,4.8796,4.8864,4.8851,4.8875,4.8882,4.8888,4.8893,4.8743,4.8878,4.8877,4.8877,4.8877,4.8877,0,4.8081,4.8121,4.8188,4.8268,4.8326,4.8324,4.8388,4.8437,4.8512,4.8569,4.8632,4.8724,4.88,4.8851,4.8929,4.8974,4.8978,4.8993,4.8991,4.9001,4.8898,4.8877,4.8989,4.8989,4.8989,4.8989,4.8989,4.8989,4.815,4.8241,4.8264,4.8379,4.8419,4.8502,4.8539,4.859,4.8636,4.8738,4.8802,4.8834,4.889,4.8972,4.9043,4.9056,4.9085,4.9102,4.9115,4.9019,4.9007,4.8996,4.8976,4.9107,4.9107,4.9212,4.9213,4.9213]}]]